{"data":{"norad_id":49316,"intl_designator":"2021-091B","name":"2021-091B","alt_names":[],"object_type":"PAYLOAD","status":"ACTIVE","operator":null,"country":"PRC","launch_date":"2021-10-14","launch_site_code":"TAISC","launch_vehicle":null,"mission":null,"orbit_class":"UNKNOWN","rcs_meters":null,"size_class":null,"mass_kg":null,"dimensions":null,"purposes":[],"wikipedia_slug":null,"has_3d_model":false,"image_url":null,"decayed_at":null,"tle_current":{"epoch":"2026-05-25T04:39:04.872960Z","epoch_age_seconds":52238,"freshness":"FRESH","line1":"1 49316U 21091B   26145.19380640  .00002716  00000+0  13498-3 0  9998","line2":"2 49316  97.4481 333.1213 0014759 117.6701 242.6033 15.18415798255497","mean_motion":15.18415798,"eccentricity":0.0014759,"inclination_deg":97.4481,"raan_deg":333.1213,"arg_perigee_deg":117.6701,"mean_anomaly_deg":242.6033,"bstar":0.00013498,"rev_number":25549,"period_min":94.835683473309,"perigee_km":500.46080652101,"apogee_km":520.79506285522,"semimajor_km":6888.7649346881,"source":"CELESTRAK","updated_at":"2026-05-25T13:37:57.170205Z"}}}